Tracking 27188 objects as of 1-Apr-2023
HD Live streaming from Space Station
objects crossing your sky now

STARLINK-4349

Track STARLINK-4349 now!
10-day predictions
STARLINK-4349 is classified as:


NORAD ID: 53044
Int'l Code: 2022-077B
Perigee: 567.7 km
Apogee: 572.6 km
Inclination: 97.7 °
Period: 95.9 minutes
Semi major axis: 6941 km
RCS: Unknown
Launch date: July 11, 2022
Source: United States (US)
Launch site: AIR FORCE WESTERN TEST RANGE (AFWTR)
Your satellite tracking list
Your tracking list is empty




NASA's NSSDC Master Catalog

Two Line Element Set (TLE):
1 53044U 22077B   23091.06936024 -.00000861  00000-0 -62431-4 0  9996
2 53044  97.6543 273.2427 0003511 205.6740 154.4310 15.01271271 40428
Source of the keplerian elements: AFSPC